contact:dominique.lefevre@mio.osupytheas.fr, maurice.libes@osupytheas.fr, didier.mallarino@osupytheas.fr
Project:EMSO http://www.emso-fr.org/EMSO-France
Depth: 2436.0 m
Title:EMSO Ligure Ouest : Data MII capteur CSTAR
DateTime,Latitude,Longitude,Instrument_Serial,Reference_Counts,Signal_Counts,Corrected_Signal_raw_counts,Calculated_Beam_c_inverse_meters,Internal_thermistor_counts
DateTime,Latitude,Longitude,Instrument_Serial,Reference_Counts,Signal_Counts,Corrected_Signal_raw_counts,Calculated_Beam_c_inverse_meters,Internal_thermistor_counts
2023-06-13T00:02:12,42.805,6.029,CST-1368DR,4290,4690,11606,01.187,552
2023-06-13T00:05:14,42.805,6.029,CST-1368DR,4290,4697,11622,01.182,552
2023-06-13T00:08:15,42.805,6.029,CST-1368DR,4290,4689,11602,01.188,552
2023-06-13T00:11:17,42.805,6.029,CST-1368DR,4290,4696,11619,01.183,552
2023-06-13T00:14:18,42.805,6.029,CST-1368DR,4290,4688,11601,01.189,552
2023-06-13T00:17:20,42.805,6.029,CST-1368DR,4290,4696,11620,01.182,552
2023-06-13T00:20:22,42.805,6.029,CST-1368DR,4290,4695,11617,01.183,552
2023-06-13T00:23:23,42.805,6.029,CST-1368DR,4290,4695,11617,01.183,552
2023-06-13T00:26:25,42.805,6.029,CST-1368DR,4290,4685,11594,01.191,552
2023-06-13T00:29:26,42.805,6.029,CST-1368DR,4290,4691,11607,01.187,552
2023-06-13T00:32:28,42.805,6.029,CST-1368DR,4290,4694,11616,01.184,552
2023-06-13T00:35:29,42.805,6.029,CST-1368DR,4290,4690,11605,01.187,552
2023-06-13T00:38:31,42.805,6.029,CST-1368DR,4290,4694,11614,01.184,552
2023-06-13T00:41:33,42.805,6.029,CST-1368DR,4290,4693,11613,01.185,552
2023-06-13T00:44:34,42.805,6.029,CST-1368DR,4290,4694,11616,01.184,552
2023-06-13T00:47:36,42.805,6.029,CST-1368DR,4290,4694,11615,01.184,552
2023-06-13T00:50:37,42.805,6.029,CST-1368DR,4290,4695,11619,01.183,552
2023-06-13T00:53:39,42.805,6.029,CST-1368DR,4290,4694,11616,01.184,552
2023-06-13T00:56:41,42.805,6.029,CST-1368DR,4290,4693,11613,01.185,552
2023-06-13T00:59:42,42.805,6.029,CST-1368DR,4290,4688,11601,01.189,552
2023-06-13T01:02:44,42.805,6.029,CST-1368DR,4290,4694,11615,01.184,552
2023-06-13T01:05:45,42.805,6.029,CST-1368DR,4290,4694,11616,01.184,552
2023-06-13T01:08:47,42.805,6.029,CST-1368DR,4290,4692,11610,01.186,552
2023-06-13T01:11:48,42.805,6.029,CST-1368DR,4290,4690,11605,01.187,552
2023-06-13T01:14:50,42.805,6.029,CST-1368DR,4290,4694,11616,01.184,552
2023-06-13T01:17:52,42.805,6.029,CST-1368DR,4290,4697,11622,01.182,552
2023-06-13T01:20:53,42.805,6.029,CST-1368DR,4290,4690,11606,01.187,552
2023-06-13T01:23:55,42.805,6.029,CST-1368DR,4290,4690,11606,01.187,552
2023-06-13T01:26:56,42.805,6.029,CST-1368DR,4290,4686,11595,01.191,552
2023-06-13T01:29:58,42.805,6.029,CST-1368DR,4290,4686,11595,01.191,552
2023-06-13T01:32:59,42.805,6.029,CST-1368DR,4290,4690,11606,01.187,552
2023-06-13T01:36:01,42.805,6.029,CST-1368DR,4290,4687,11598,01.190,552
2023-06-13T01:39:03,42.805,6.029,CST-1368DR,4290,4685,11592,01.192,552
2023-06-13T01:42:04,42.805,6.029,CST-1368DR,4290,4688,11600,01.189,552
2023-06-13T01:45:06,42.805,6.029,CST-1368DR,4290,4688,11601,01.189,552
2023-06-13T01:48:07,42.805,6.029,CST-1368DR,4290,4686,11595,01.191,552
2023-06-13T01:51:09,42.805,6.029,CST-1368DR,4290,4687,11598,01.190,552
2023-06-13T01:54:11,42.805,6.029,CST-1368DR,4290,4685,11592,01.192,552
2023-06-13T01:57:12,42.805,6.029,CST-1368DR,4290,4686,11596,01.191,552
2023-06-13T02:00:14,42.805,6.029,CST-1368DR,4290,4685,11592,01.192,552
2023-06-13T02:03:15,42.805,6.029,CST-1368DR,4290,4685,11593,01.192,552
2023-06-13T02:06:17,42.805,6.029,CST-1368DR,4290,4688,11599,01.190,552
2023-06-13T02:09:18,42.805,6.029,CST-1368DR,4290,4686,11594,01.191,552
2023-06-13T02:12:20,42.805,6.029,CST-1368DR,4290,4685,11593,01.192,552
2023-06-13T02:15:22,42.805,6.029,CST-1368DR,4290,4685,11592,01.192,552
2023-06-13T02:18:23,42.805,6.029,CST-1368DR,4290,4687,11597,01.190,552
2023-06-13T02:21:25,42.805,6.029,CST-1368DR,4290,4687,11598,01.190,552
2023-06-13T02:24:26,42.805,6.029,CST-1368DR,4290,4688,11601,01.189,552
2023-06-13T02:27:28,42.805,6.029,CST-1368DR,4290,4691,11607,01.187,552
2023-06-13T02:30:29,42.805,6.029,CST-1368DR,4290,4687,11598,01.190,552
2023-06-13T02:33:31,42.805,6.029,CST-1368DR,4290,4686,11596,01.191,552
2023-06-13T02:36:33,42.805,6.029,CST-1368DR,4290,4683,11589,01.193,552
2023-06-13T02:39:34,42.805,6.029,CST-1368DR,4290,4688,11599,01.190,552
2023-06-13T02:42:36,42.805,6.029,CST-1368DR,4290,4687,11598,01.190,552
2023-06-13T02:45:37,42.805,6.029,CST-1368DR,4290,4684,11591,01.192,552
2023-06-13T02:48:39,42.805,6.029,CST-1368DR,4290,4689,11602,01.188,552
2023-06-13T02:51:40,42.805,6.029,CST-1368DR,4290,4686,11596,01.191,552
2023-06-13T02:54:42,42.805,6.029,CST-1368DR,4290,4685,11593,01.192,552
2023-06-13T02:57:44,42.805,6.029,CST-1368DR,4290,4690,11606,01.187,552
2023-06-13T03:00:45,42.805,6.029,CST-1368DR,4290,4687,11598,01.190,552
2023-06-13T03:03:47,42.805,6.029,CST-1368DR,4290,4689,11604,01.188,552
2023-06-13T03:06:48,42.805,6.029,CST-1368DR,4290,4687,11598,01.190,552
2023-06-13T03:09:50,42.805,6.029,CST-1368DR,4290,4689,11602,01.188,552
2023-06-13T03:12:52,42.805,6.029,CST-1368DR,4290,4688,11601,01.189,552
2023-06-13T03:15:53,42.805,6.029,CST-1368DR,4290,4689,11603,01.188,552
2023-06-13T03:18:55,42.805,6.029,CST-1368DR,4290,4688,11600,01.189,552
2023-06-13T03:21:56,42.805,6.029,CST-1368DR,4290,4688,11601,01.189,552
2023-06-13T03:24:58,42.805,6.029,CST-1368DR,4290,4689,11602,01.188,552
2023-06-13T03:27:59,42.805,6.029,CST-1368DR,4290,4688,11601,01.189,552
2023-06-13T03:31:01,42.805,6.029,CST-1368DR,4290,4690,11605,01.187,552
2023-06-13T03:34:03,42.805,6.029,CST-1368DR,4290,4688,11599,01.190,552
2023-06-13T03:37:04,42.805,6.029,CST-1368DR,4290,4690,11606,01.187,552
2023-06-13T03:40:06,42.805,6.029,CST-1368DR,4290,4689,11602,01.188,552
2023-06-13T03:43:07,42.805,6.029,CST-1368DR,4290,4689,11602,01.188,552
2023-06-13T03:46:09,42.805,6.029,CST-1368DR,4290,4688,11599,01.190,552
2023-06-13T03:49:10,42.805,6.029,CST-1368DR,4290,4689,11603,01.188,552
2023-06-13T03:52:12,42.805,6.029,CST-1368DR,4290,4689,11603,01.188,552
2023-06-13T03:55:14,42.805,6.029,CST-1368DR,4290,4688,11601,01.189,552
2023-06-13T03:58:15,42.805,6.029,CST-1368DR,4290,4686,11596,01.191,552
2023-06-13T04:01:17,42.805,6.029,CST-1368DR,4290,4688,11599,01.190,552
2023-06-13T04:04:18,42.805,6.029,CST-1368DR,4290,4688,11599,01.190,552
2023-06-13T04:07:20,42.805,6.029,CST-1368DR,4290,4684,11591,01.192,552
2023-06-13T04:10:22,42.805,6.029,CST-1368DR,4290,4683,11589,01.193,552
2023-06-13T04:13:23,42.805,6.029,CST-1368DR,4290,4685,11594,01.191,552
2023-06-13T04:16:25,42.805,6.029,CST-1368DR,4290,4687,11597,01.190,552
2023-06-13T04:19:26,42.805,6.029,CST-1368DR,4290,4686,11596,01.191,552
2023-06-13T04:22:28,42.805,6.029,CST-1368DR,4290,4686,11595,01.191,552
2023-06-13T04:25:29,42.805,6.029,CST-1368DR,4290,4685,11593,01.192,552
2023-06-13T04:28:31,42.805,6.029,CST-1368DR,4290,4686,11595,01.191,552
2023-06-13T04:31:33,42.805,6.029,CST-1368DR,4290,4686,11595,01.191,552
2023-06-13T04:34:34,42.805,6.029,CST-1368DR,4290,4682,11586,01.194,552
2023-06-13T04:37:36,42.805,6.029,CST-1368DR,4290,4683,11588,01.193,552
2023-06-13T04:40:37,42.805,6.029,CST-1368DR,4290,4684,11591,01.192,552
2023-06-13T04:43:39,42.805,6.029,CST-1368DR,4290,4684,11591,01.192,552
2023-06-13T04:46:40,42.805,6.029,CST-1368DR,4290,4685,11594,01.191,552
2023-06-13T04:49:42,42.805,6.029,CST-1368DR,4290,4685,11594,01.191,552
2023-06-13T04:52:44,42.805,6.029,CST-1368DR,4290,4685,11593,01.192,552
2023-06-13T04:55:45,42.805,6.029,CST-1368DR,4290,4683,11588,01.193,552
2023-06-13T04:58:47,42.805,6.029,CST-1368DR,4290,4682,11586,01.194,552
2023-06-13T05:01:48,42.805,6.029,CST-1368DR,4290,4686,11596,01.191,552
2023-06-13T05:04:50,42.805,6.029,CST-1368DR,4290,4684,11591,01.192,552
2023-06-13T05:07:52,42.805,6.029,CST-1368DR,4290,4685,11593,01.192,552
2023-06-13T05:10:53,42.805,6.029,CST-1368DR,4290,4683,11588,01.193,552
2023-06-13T05:13:55,42.805,6.029,CST-1368DR,4290,4683,11588,01.193,552
2023-06-13T05:16:56,42.805,6.029,CST-1368DR,4290,4687,11598,01.190,552
2023-06-13T05:19:58,42.805,6.029,CST-1368DR,4290,4686,11596,01.191,552
2023-06-13T05:22:59,42.805,6.029,CST-1368DR,4290,4684,11591,01.192,552
2023-06-13T05:26:01,42.805,6.029,CST-1368DR,4290,4685,11593,01.192,552
2023-06-13T05:29:03,42.805,6.029,CST-1368DR,4290,4685,11592,01.192,552
2023-06-13T05:32:04,42.805,6.029,CST-1368DR,4290,4685,11592,01.192,552
2023-06-13T05:35:06,42.805,6.029,CST-1368DR,4290,4682,11586,01.194,552
2023-06-13T05:38:07,42.805,6.029,CST-1368DR,4290,4685,11593,01.192,552
2023-06-13T05:41:09,42.805,6.029,CST-1368DR,4290,4683,11588,01.193,552
2023-06-13T05:44:10,42.805,6.029,CST-1368DR,4290,4682,11586,01.194,552
2023-06-13T05:47:12,42.805,6.029,CST-1368DR,4290,4684,11591,01.192,552
2023-06-13T05:50:14,42.805,6.029,CST-1368DR,4290,4684,11589,01.193,552
2023-06-13T05:53:15,42.805,6.029,CST-1368DR,4290,4682,11585,01.194,552
2023-06-13T05:56:17,42.805,6.029,CST-1368DR,4290,4681,11584,01.195,552
2023-06-13T05:59:18,42.805,6.029,CST-1368DR,4290,4681,11584,01.195,552
2023-06-13T06:02:20,42.805,6.029,CST-1368DR,4290,4679,11579,01.196,552
2023-06-13T06:05:22,42.805,6.029,CST-1368DR,4290,4681,11584,01.195,552
2023-06-13T06:08:23,42.805,6.029,CST-1368DR,4290,4682,11585,01.194,552
2023-06-13T06:11:25,42.805,6.029,CST-1368DR,4290,4682,11585,01.194,552
2023-06-13T06:14:26,42.805,6.029,CST-1368DR,4290,4683,11588,01.193,552
2023-06-13T06:17:28,42.805,6.029,CST-1368DR,4290,4683,11588,01.193,552
2023-06-13T06:20:29,42.805,6.029,CST-1368DR,4290,4682,11585,01.194,552
2023-06-13T06:23:31,42.805,6.029,CST-1368DR,4290,4683,11587,01.194,552
2023-06-13T06:26:33,42.805,6.029,CST-1368DR,4290,4683,11587,01.194,552
2023-06-13T06:29:34,42.805,6.029,CST-1368DR,4290,4684,11591,01.192,552
2023-06-13T06:32:38,42.805,6.029,CST-1368DR,4290,4685,11593,01.192,552
2023-06-13T06:35:40,42.805,6.029,CST-1368DR,4290,4683,11588,01.193,552
2023-06-13T06:38:41,42.805,6.029,CST-1368DR,4290,4682,11585,01.194,552
2023-06-13T06:41:43,42.805,6.029,CST-1368DR,4290,4683,11588,01.193,552
2023-06-13T06:44:45,42.805,6.029,CST-1368DR,4290,4682,11585,01.194,552
2023-06-13T06:47:46,42.805,6.029,CST-1368DR,4290,4684,11591,01.192,552
2023-06-13T06:50:48,42.805,6.029,CST-1368DR,4290,4682,11586,01.194,552
2023-06-13T06:53:49,42.805,6.029,CST-1368DR,4290,4682,11585,01.194,552
2023-06-13T06:56:51,42.805,6.029,CST-1368DR,4290,4684,11589,01.193,552
2023-06-13T06:59:52,42.805,6.029,CST-1368DR,4290,4682,11586,01.194,552
2023-06-13T07:02:54,42.805,6.029,CST-1368DR,4290,4680,11581,01.196,552
2023-06-13T07:05:56,42.805,6.029,CST-1368DR,4290,4683,11588,01.193,552
2023-06-13T07:08:57,42.805,6.029,CST-1368DR,4290,4680,11581,01.196,552
2023-06-13T07:11:59,42.805,6.029,CST-1368DR,4290,4680,11581,01.196,552
2023-06-13T07:15:00,42.805,6.029,CST-1368DR,4290,4679,11578,01.197,552
2023-06-13T07:18:02,42.805,6.029,CST-1368DR,4290,4683,11589,01.193,552
2023-06-13T07:21:03,42.805,6.029,CST-1368DR,4290,4682,11585,01.194,552
2023-06-13T07:24:05,42.805,6.029,CST-1368DR,4290,4683,11588,01.193,552
2023-06-13T07:27:07,42.805,6.029,CST-1368DR,4290,4682,11586,01.194,552
2023-06-13T07:30:08,42.805,6.029,CST-1368DR,4290,4682,11586,01.194,552
2023-06-13T07:33:10,42.805,6.029,CST-1368DR,4290,4683,11589,01.193,552
2023-06-13T07:36:11,42.805,6.029,CST-1368DR,4290,4686,11594,01.191,552
2023-06-13T07:39:13,42.805,6.029,CST-1368DR,4290,4682,11585,01.194,552
2023-06-13T07:42:15,42.805,6.029,CST-1368DR,4290,4681,11583,01.195,552
2023-06-13T07:45:16,42.805,6.029,CST-1368DR,4290,4685,11592,01.192,552
2023-06-13T07:48:18,42.805,6.029,CST-1368DR,4290,4689,11603,01.188,552
2023-06-13T07:51:19,42.805,6.029,CST-1368DR,4290,4686,11594,01.191,552
2023-06-13T07:54:21,42.805,6.029,CST-1368DR,4290,4684,11589,01.193,552
2023-06-13T07:57:22,42.805,6.029,CST-1368DR,4290,4685,11592,01.192,552
2023-06-13T08:00:24,42.805,6.029,CST-1368DR,4290,4687,11598,01.190,552
2023-06-13T08:03:26,42.805,6.029,CST-1368DR,4290,4683,11589,01.193,552
2023-06-13T08:06:27,42.805,6.029,CST-1368DR,4290,4685,11592,01.192,552
2023-06-13T08:09:29,42.805,6.029,CST-1368DR,4290,4687,11597,01.190,552
2023-06-13T08:12:30,42.805,6.029,CST-1368DR,4290,4685,11594,01.191,552
2023-06-13T08:15:32,42.805,6.029,CST-1368DR,4290,4685,11594,01.191,552
2023-06-13T08:18:33,42.805,6.029,CST-1368DR,4290,4685,11592,01.192,552
2023-06-13T08:21:35,42.805,6.029,CST-1368DR,4290,4685,11593,01.192,552
2023-06-13T08:24:37,42.805,6.029,CST-1368DR,4290,4686,11596,01.191,552
2023-06-13T08:27:38,42.805,6.029,CST-1368DR,4290,4683,11588,01.193,552
2023-06-13T08:30:41,42.805,6.029,CST-1368DR,4290,4684,11589,01.193,552
2023-06-13T08:33:42,42.805,6.029,CST-1368DR,4290,4683,11588,01.193,552
2023-06-13T08:36:44,42.805,6.029,CST-1368DR,4290,4686,11596,01.191,552
2023-06-13T08:39:46,42.805,6.029,CST-1368DR,4290,4689,11602,01.188,552
2023-06-13T08:42:47,42.805,6.029,CST-1368DR,4290,4687,11597,01.190,552
2023-06-13T08:45:49,42.805,6.029,CST-1368DR,4290,4686,11596,01.191,552
2023-06-13T08:48:50,42.805,6.029,CST-1368DR,4290,4685,11592,01.192,552
2023-06-13T08:51:52,42.805,6.029,CST-1368DR,4290,4686,11596,01.191,552
2023-06-13T08:54:53,42.805,6.029,CST-1368DR,4290,4688,11599,01.190,552
2023-06-13T08:57:55,42.805,6.029,CST-1368DR,4290,4689,11602,01.188,552
2023-06-13T09:00:57,42.805,6.029,CST-1368DR,4290,4688,11601,01.189,552
2023-06-13T09:03:58,42.805,6.029,CST-1368DR,4290,4689,11602,01.188,552
2023-06-13T09:07:00,42.805,6.029,CST-1368DR,4290,4690,11605,01.187,552
2023-06-13T09:10:01,42.805,6.029,CST-1368DR,4290,4689,11602,01.188,552
2023-06-13T09:13:03,42.805,6.029,CST-1368DR,4290,4689,11604,01.188,552
2023-06-13T09:16:05,42.805,6.029,CST-1368DR,4290,4687,11598,01.190,552
2023-06-13T09:19:06,42.805,6.029,CST-1368DR,4290,4686,11596,01.191,552
2023-06-13T09:22:08,42.805,6.029,CST-1368DR,4290,4685,11594,01.191,552
2023-06-13T09:25:09,42.805,6.029,CST-1368DR,4290,4686,11596,01.191,552
2023-06-13T09:28:11,42.805,6.029,CST-1368DR,4290,4684,11591,01.192,552
2023-06-13T09:31:12,42.805,6.029,CST-1368DR,4290,4684,11589,01.193,552
2023-06-13T09:34:14,42.805,6.029,CST-1368DR,4290,4685,11592,01.192,552
2023-06-13T09:37:16,42.805,6.029,CST-1368DR,4290,4684,11589,01.193,552
2023-06-13T09:40:17,42.805,6.029,CST-1368DR,4290,4684,11591,01.192,552
2023-06-13T09:43:19,42.805,6.029,CST-1368DR,4290,4683,11588,01.193,552
2023-06-13T09:46:20,42.805,6.029,CST-1368DR,4290,4684,11591,01.192,552
2023-06-13T09:49:22,42.805,6.029,CST-1368DR,4290,4685,11592,01.192,552
2023-06-13T09:52:23,42.805,6.029,CST-1368DR,4290,4685,11593,01.192,552
2023-06-13T09:55:25,42.805,6.029,CST-1368DR,4290,4682,11586,01.194,552
2023-06-13T09:58:27,42.805,6.029,CST-1368DR,4290,4683,11587,01.194,552
2023-06-13T10:01:28,42.805,6.029,CST-1368DR,4290,4682,11586,01.194,552
2023-06-13T10:04:30,42.805,6.029,CST-1368DR,4290,4686,11596,01.191,552
2023-06-13T10:07:31,42.805,6.029,CST-1368DR,4290,4682,11585,01.194,552
2023-06-13T10:10:33,42.805,6.029,CST-1368DR,4290,4684,11591,01.192,552
2023-06-13T10:13:35,42.805,6.029,CST-1368DR,4290,4683,11588,01.193,552
2023-06-13T10:16:36,42.805,6.029,CST-1368DR,4290,4681,11583,01.195,552
2023-06-13T10:19:38,42.805,6.029,CST-1368DR,4290,4680,11580,01.196,552
2023-06-13T10:22:39,42.805,6.029,CST-1368DR,4290,4682,11586,01.194,552
2023-06-13T10:25:41,42.805,6.029,CST-1368DR,4290,4682,11585,01.194,552
2023-06-13T10:28:42,42.805,6.029,CST-1368DR,4290,4680,11581,01.196,552
2023-06-13T10:31:44,42.805,6.029,CST-1368DR,4290,4682,11585,01.194,552
2023-06-13T10:34:46,42.805,6.029,CST-1368DR,4290,4687,11598,01.190,552
2023-06-13T10:37:47,42.805,6.029,CST-1368DR,4290,4682,11586,01.194,552
2023-06-13T10:40:49,42.805,6.029,CST-1368DR,4290,4682,11586,01.194,552
2023-06-13T10:43:50,42.805,6.029,CST-1368DR,4290,4681,11584,01.195,552
2023-06-13T10:46:52,42.805,6.029,CST-1368DR,4290,4680,11581,01.196,552
2023-06-13T10:49:53,42.805,6.029,CST-1368DR,4290,4678,11576,01.197,552
2023-06-13T10:52:55,42.805,6.029,CST-1368DR,4290,4677,11574,01.198,552
2023-06-13T10:55:57,42.805,6.029,CST-1368DR,4290,4678,11575,01.198,552
2023-06-13T10:58:58,42.805,6.029,CST-1368DR,4290,4678,11576,01.197,552
2023-06-13T11:02:00,42.805,6.029,CST-1368DR,4290,4678,11576,01.197,552
2023-06-13T11:05:01,42.805,6.029,CST-1368DR,4290,4677,11572,01.199,552
2023-06-13T11:08:03,42.805,6.029,CST-1368DR,4290,4675,11569,01.200,552
2023-06-13T11:11:05,42.805,6.029,CST-1368DR,4290,4676,11570,01.200,552
2023-06-13T11:14:06,42.805,6.029,CST-1368DR,4290,4680,11581,01.196,552
2023-06-13T11:17:08,42.805,6.029,CST-1368DR,4290,4683,11588,01.193,552
2023-06-13T11:20:09,42.805,6.029,CST-1368DR,4290,4681,11584,01.195,552
2023-06-13T11:23:11,42.805,6.029,CST-1368DR,4290,4684,11589,01.193,552
2023-06-13T11:26:12,42.805,6.029,CST-1368DR,4290,4688,11599,01.190,552
2023-06-13T11:29:14,42.805,6.029,CST-1368DR,4290,4688,11601,01.189,552
2023-06-13T11:32:16,42.805,6.029,CST-1368DR,4290,4685,11592,01.192,552
2023-06-13T11:35:17,42.805,6.029,CST-1368DR,4290,4683,11588,01.193,552
2023-06-13T11:38:19,42.805,6.029,CST-1368DR,4290,4678,11576,01.197,552
2023-06-13T11:41:20,42.805,6.029,CST-1368DR,4290,4684,11589,01.193,552
2023-06-13T11:44:22,42.805,6.029,CST-1368DR,4290,4684,11591,01.192,552
2023-06-13T11:47:23,42.805,6.029,CST-1368DR,4290,4685,11594,01.191,552
2023-06-13T11:50:25,42.805,6.029,CST-1368DR,4290,4687,11598,01.190,552
2023-06-13T11:53:27,42.805,6.029,CST-1368DR,4290,4687,11598,01.190,552
2023-06-13T11:56:28,42.805,6.029,CST-1368DR,4290,4683,11589,01.193,552
2023-06-13T11:59:30,42.805,6.029,CST-1368DR,4290,4683,11587,01.194,552
2023-06-13T12:02:31,42.805,6.029,CST-1368DR,4290,4687,11597,01.190,552
2023-06-13T12:05:33,42.805,6.029,CST-1368DR,4290,4688,11601,01.189,552
2023-06-13T12:08:35,42.805,6.029,CST-1368DR,4290,4682,11585,01.194,552
2023-06-13T12:11:36,42.805,6.029,CST-1368DR,4290,4685,11593,01.192,552
2023-06-13T12:14:38,42.805,6.029,CST-1368DR,4290,4686,11595,01.191,552
2023-06-13T12:17:39,42.805,6.029,CST-1368DR,4290,4686,11594,01.191,552
2023-06-13T12:20:41,42.805,6.029,CST-1368DR,4290,4688,11601,01.189,552
2023-06-13T12:23:42,42.805,6.029,CST-1368DR,4290,4688,11601,01.189,552
2023-06-13T12:26:44,42.805,6.029,CST-1368DR,4290,4688,11600,01.189,552
2023-06-13T12:29:46,42.805,6.029,CST-1368DR,4290,4683,11589,01.193,552
2023-06-13T12:32:47,42.805,6.029,CST-1368DR,4290,4685,11594,01.191,552
2023-06-13T12:35:49,42.805,6.029,CST-1368DR,4290,4689,11602,01.188,552
2023-06-13T12:38:50,42.805,6.029,CST-1368DR,4290,4687,11598,01.190,552
2023-06-13T12:41:52,42.805,6.029,CST-1368DR,4290,4689,11604,01.188,552
2023-06-13T12:44:53,42.805,6.029,CST-1368DR,4290,4687,11598,01.190,552
2023-06-13T12:47:55,42.805,6.029,CST-1368DR,4290,4688,11599,01.190,552
2023-06-13T12:50:57,42.805,6.029,CST-1368DR,4290,4687,11597,01.190,552
2023-06-13T12:53:58,42.805,6.029,CST-1368DR,4290,4686,11595,01.191,552
2023-06-13T12:57:00,42.805,6.029,CST-1368DR,4290,4687,11598,01.190,552
2023-06-13T13:00:01,42.805,6.029,CST-1368DR,4290,4692,11611,01.185,552
2023-06-13T13:03:03,42.805,6.029,CST-1368DR,4290,4686,11594,01.191,552
2023-06-13T13:06:05,42.805,6.029,CST-1368DR,4290,4692,11611,01.185,552
2023-06-13T13:09:06,42.805,6.029,CST-1368DR,4290,4688,11600,01.189,552
2023-06-13T13:12:08,42.805,6.029,CST-1368DR,4290,4689,11604,01.188,552
2023-06-13T13:15:09,42.805,6.029,CST-1368DR,4290,4692,11609,01.186,552
2023-06-13T13:18:11,42.805,6.029,CST-1368DR,4290,4694,11614,01.184,552
2023-06-13T13:21:12,42.805,6.029,CST-1368DR,4290,4692,11610,01.186,552
2023-06-13T13:24:14,42.805,6.029,CST-1368DR,4290,4690,11605,01.187,552
2023-06-13T13:27:16,42.805,6.029,CST-1368DR,4290,4693,11612,01.185,552
2023-06-13T13:30:17,42.805,6.029,CST-1368DR,4290,4689,11602,01.188,552
2023-06-13T13:33:19,42.805,6.029,CST-1368DR,4290,4687,11597,01.190,552
2023-06-13T13:36:20,42.805,6.029,CST-1368DR,4290,4693,11613,01.185,552
2023-06-13T13:39:22,42.805,6.029,CST-1368DR,4290,4689,11603,01.188,552
2023-06-13T13:42:23,42.805,6.029,CST-1368DR,4290,4690,11604,01.188,552
2023-06-13T13:45:25,42.805,6.029,CST-1368DR,4290,4690,11606,01.187,552
2023-06-13T13:48:27,42.805,6.029,CST-1368DR,4290,4689,11604,01.188,552
2023-06-13T13:51:28,42.805,6.029,CST-1368DR,4290,4687,11598,01.190,552
2023-06-13T13:54:30,42.805,6.029,CST-1368DR,4290,4692,11611,01.185,552
2023-06-13T13:57:31,42.805,6.029,CST-1368DR,4290,4690,11604,01.188,552
2023-06-13T14:00:33,42.805,6.029,CST-1368DR,4290,4689,11603,01.188,552
2023-06-13T14:03:35,42.805,6.029,CST-1368DR,4290,4694,11614,01.184,552
2023-06-13T14:06:36,42.805,6.029,CST-1368DR,4290,4688,11601,01.189,552
2023-06-13T14:09:38,42.805,6.029,CST-1368DR,4290,4690,11606,01.187,552
2023-06-13T14:12:39,42.805,6.029,CST-1368DR,4290,4687,11597,01.190,552
2023-06-13T14:15:41,42.805,6.029,CST-1368DR,4290,4686,11595,01.191,552
2023-06-13T14:18:42,42.805,6.029,CST-1368DR,4290,4687,11597,01.190,552
2023-06-13T14:21:44,42.805,6.029,CST-1368DR,4290,4688,11601,01.189,552
2023-06-13T14:24:46,42.805,6.029,CST-1368DR,4290,4691,11607,01.187,552
2023-06-13T14:27:47,42.805,6.029,CST-1368DR,4290,4689,11603,01.188,552
2023-06-13T14:30:50,42.805,6.029,CST-1368DR,4290,4687,11597,01.190,552
2023-06-13T14:33:52,42.805,6.029,CST-1368DR,4290,4687,11598,01.190,552
2023-06-13T14:36:53,42.805,6.029,CST-1368DR,4290,4693,11612,01.185,552
2023-06-13T14:39:55,42.805,6.029,CST-1368DR,4290,4694,11616,01.184,552
2023-06-13T14:42:56,42.805,6.029,CST-1368DR,4290,4688,11599,01.190,552
2023-06-13T14:45:58,42.805,6.029,CST-1368DR,4290,4689,11602,01.188,552
2023-06-13T14:49:00,42.805,6.029,CST-1368DR,4290,4687,11598,01.190,552
2023-06-13T14:52:01,42.805,6.029,CST-1368DR,4290,4695,11617,01.183,552
2023-06-13T14:55:03,42.805,6.029,CST-1368DR,4290,4689,11603,01.188,552
2023-06-13T14:58:04,42.805,6.029,CST-1368DR,4290,4689,11602,01.188,552
2023-06-13T15:01:06,42.805,6.029,CST-1368DR,4290,4689,11602,01.188,552
2023-06-13T15:04:08,42.805,6.029,CST-1368DR,4290,4688,11600,01.189,552
2023-06-13T15:07:09,42.805,6.029,CST-1368DR,4290,4692,11610,01.186,552
2023-06-13T15:10:11,42.805,6.029,CST-1368DR,4290,4688,11599,01.190,552
2023-06-13T15:13:12,42.805,6.029,CST-1368DR,4290,4691,11609,01.186,552
2023-06-13T15:16:14,42.805,6.029,CST-1368DR,4290,4691,11608,01.186,552
2023-06-13T15:19:15,42.805,6.029,CST-1368DR,4290,4689,11602,01.188,552
2023-06-13T15:22:17,42.805,6.029,CST-1368DR,4290,4690,11606,01.187,552
2023-06-13T15:25:19,42.805,6.029,CST-1368DR,4290,4686,11596,01.191,552
2023-06-13T15:28:20,42.805,6.029,CST-1368DR,4290,4693,11614,01.184,552
2023-06-13T15:31:22,42.805,6.029,CST-1368DR,4290,4686,11594,01.191,552
2023-06-13T15:34:23,42.805,6.029,CST-1368DR,4290,4685,11593,01.192,552
2023-06-13T15:37:25,42.805,6.029,CST-1368DR,4290,4689,11604,01.188,552
2023-06-13T15:40:26,42.805,6.029,CST-1368DR,4290,4684,11591,01.192,552
2023-06-13T15:43:28,42.805,6.029,CST-1368DR,4290,4690,11606,01.187,552
2023-06-13T15:46:30,42.805,6.029,CST-1368DR,4290,4687,11597,01.190,552
2023-06-13T15:49:31,42.805,6.029,CST-1368DR,4289,4685,11596,01.191,552
2023-06-13T15:52:33,42.805,6.029,CST-1368DR,4290,4690,11606,01.187,552
2023-06-13T15:55:34,42.805,6.029,CST-1368DR,4290,4688,11601,01.189,552
2023-06-13T15:58:36,42.805,6.029,CST-1368DR,4290,4692,11610,01.186,552
2023-06-13T16:01:38,42.805,6.029,CST-1368DR,4290,4690,11605,01.187,552
2023-06-13T16:04:39,42.805,6.029,CST-1368DR,4289,4682,11588,01.193,552
2023-06-13T16:07:41,42.805,6.029,CST-1368DR,4290,4689,11602,01.188,552
2023-06-13T16:10:42,42.805,6.029,CST-1368DR,4290,4692,11610,01.186,552
2023-06-13T16:13:44,42.805,6.029,CST-1368DR,4290,4689,11603,01.188,552
2023-06-13T16:16:45,42.805,6.029,CST-1368DR,4290,4689,11602,01.188,552
2023-06-13T16:19:47,42.805,6.029,CST-1368DR,4290,4687,11598,01.190,552
2023-06-13T16:22:49,42.805,6.029,CST-1368DR,4290,4689,11603,01.188,552
2023-06-13T16:25:50,42.805,6.029,CST-1368DR,4290,4685,11594,01.191,552
2023-06-13T16:28:52,42.805,6.029,CST-1368DR,4290,4690,11604,01.188,552
2023-06-13T16:31:53,42.805,6.029,CST-1368DR,4290,4691,11609,01.186,552
2023-06-13T16:34:54,42.805,6.029,CST-1368DR,4290,4694,11615,01.184,552
2023-06-13T16:37:56,42.805,6.029,CST-1368DR,4290,4688,11601,01.189,552